Hourly Data Report for June 19, 2017

TORONTO CITY
ONTARIO

43°40'00.000" N
79°24'00.000" W
112.50 m
6158355
71508
XTO

Download Data

Hourly Data (June 2017)
Hourly Data Report for June 19, 2017
TIME
LST
Temp Definition
°C
Dew Point Definition
°C
Rel Hum Definition
%
Precip. Amount Definition
mm

Wind Dir Definition
10's deg

Wind Spd Definition
km/h
Visibility Definition
km
Stn Press Definition
kPa
Hmdx Definition


Wind Chill Definition


Weather Definition


00:00 20.6 15.5 73 0.0 LegendMM LegendMM   99.10 25   LegendNANA
01:00 20.2 15.3 73 0.0 LegendMM LegendMM   99.12     LegendNANA
02:00 20.0 15.0 73 0.0 LegendMM LegendMM   99.14     LegendNANA
03:00 18.6 14.9 79 0.0 LegendMM LegendMM   99.14     LegendNANA
04:00 18.1 14.8 81 0.0 LegendMM LegendMM   99.20     LegendNANA
05:00 17.5 14.4 82 0.0 LegendMM LegendMM   99.26     LegendNANA
06:00 18.8 14.0 74 0.0 LegendMM LegendMM   99.28     LegendNANA
07:00 19.5 14.0 71 0.0 LegendMM LegendMM   99.35     LegendNANA
08:00 21.6 14.9 66 0.0 LegendMM LegendMM   99.35 26   LegendNANA
09:00 22.6 15.0 62 0.0 LegendMM LegendMM   99.36 27   LegendNANA
10:00 24.0 14.8 56 0.0 LegendMM LegendMM   99.36 28   LegendNANA
11:00 23.2 14.0 56 0.0 LegendMM LegendMM   99.38 27   LegendNANA
12:00 23.9 13.4 52 0.0 LegendMM LegendMM   99.36 27   LegendNANA
13:00 26.3 14.0 47 0.0 LegendMM LegendMM   99.32 30   LegendNANA
14:00 27.2 12.3 40 0.0 LegendMM LegendMM   99.24 30   LegendNANA
15:00 26.5 10.2 36 0.0 LegendMM LegendMM   99.20 28   LegendNANA
16:00 26.2 11.1 39 0.0 LegendMM LegendMM   99.20 28   LegendNANA
17:00 25.5 10.5 39 0.0 LegendMM LegendMM   99.19 27   LegendNANA
18:00 25.2 9.9 38 0.0 LegendMM LegendMM   99.21 26   LegendNANA
19:00 23.7 11.5 46 0.0 LegendMM LegendMM   99.25 26   LegendNANA
20:00 20.4 13.5 64 0.0 LegendMM LegendMM   99.27     LegendNANA
21:00 19.5 13.4 68 0.0 LegendMM LegendMM   99.36     LegendNANA
22:00 20.7 13.2 62 0.0 LegendMM LegendMM   99.37     LegendNANA
23:00 20.1 12.5 62 0.0 LegendMM LegendMM   99.43     LegendNANA

Notes on Data Quality.

Legend

  • E = Estimated
  • M = Missing
  • NA = Not Available*
  • [empty] = Indicates an unobserved value
Date modified: